Temp
13 13 13 13 13 13 13 13 14 13 14 14 14 14 14 14 14 14 14 14 14 14 15 15 15 15 15 15 15 15 15 15 15 15 15 15 15 15 15 16 15 15 15 15 15 15 15 15 16 16 16 16 16 16 16 16 15 15 15 15 14 14 14 14 14 13 12 12 12 11 11 11 11 10 10 10 10 10 10 10 10 10 9 9 9 9
12 13 13 13 13 13 13 13 13 13 13 13 13 14 14 14 14 14 14 14 14 14 14 15 15 15 15 16 16 15 15 16 16 16 16 16 16 15 15 15 15 15 15 14 14 15 15 15 15 16 16 16 16 16 16 16 15 15 15 15 14 14 14 14 14 13 12 12 12 11 11 11 10 10 10 10 10 9 9 10 10 9 9 9 9 9
12 12 12 12 13 13 13 13 13 13 13 13 13 13 13 13 14 14 14 14 14 14 14 14 14 15 15 15 16 16 16 16 16 16 16 16 16 15 15 15 15 15 15 14 14 14 15 15 15 15 15 16 16 16 16 15 15 15 15 15 15 14 14 14 13 12 12 12 12 11 11 10 10 10 10 10 9 9 9 9 9 9 9 9 9 9
11 12 12 12 12 13 13 13 13 13 13 13 13 13 13 13 13 13 14 14 14 14 14 14 14 14 15 15 15 16 16 16 16 16 16 16 15 15 15 15 15 15 15 14 14 14 14 14 14 15 15 15 15 15 15 15 15 15 15 15 15 14 14 13 13 12 12 12 12 11 11 11 10 10 10 10 9 9 9 9 9 9 9 9 9 9
11 11 11 12 12 12 13 13 13 13 13 13 13 13 13 13 13 13 13 13 14 14 14 14 14 14 14 15 15 15 15 16 16 16 15 15 15 15 15 15 15 15 15 15 15 14 14 14 14 14 14 14 15 15 15 15 15 15 15 15 15 14 14 13 12 12 12 12 12 12 11 11 10 10 10 10 9 9 9 9 9 9 9 9 9 9
11 11 11 11 11 12 12 12 12 13 13 13 13 13 12 12 12 13 13 13 13 13 13 13 14 14 14 14 14 15 15 15 15 15 15 15 15 15 15 15 15 15 15 15 15 15 15 15 15 14 14 15 15 15 15 15 15 15 15 15 14 14 13 13 12 12 12 12 12 12 11 11 10 10 10 10 9 9 9 9 9 9 9 9 9 9
10 11 11 11 11 11 11 12 12 12 13 12 12 12 12 12 12 12 12 12 12 12 13 13 13 13 14 14 14 14 14 15 15 15 15 15 15 15 15 15 15 15 15 15 15 15 15 15 15 15 15 15 15 15 15 15 15 15 15 14 14 14 13 13 12 12 12 12 12 12 11 11 10 10 10 10 9 9 9 9 9 9 9 9 9 9
10 10 10 11 11 11 11 11 12 12 12 12 12 11 11 11 12 12 12 12 12 12 12 12 13 13 13 13 14 14 14 14 14 14 15 15 15 14 14 15 15 15 15 15 15 15 15 15 15 15 15 15 15 15 15 15 15 15 15 14 14 13 13 13 13 12 12 12 12 11 11 10 10 10 10 9 9 9 9 9 9 9 9 9 9 9
10 10 10 10 10 11 11 11 11 11 11 11 11 11 11 11 11 11 11 11 12 12 12 12 12 12 13 13 13 13 14 14 14 14 14 14 14 14 14 14 14 15 15 15 15 15 15 15 15 15 15 15 15 15 15 15 15 15 14 14 14 13 13 13 13 13 12 12 11 11 10 10 10 9 9 9 9 9 9 9 9 9 9 9 9 8
10 10 10 10 10 10 10 10 10 11 11 11 11 11 11 11 11 11 11 11 11 11 11 12 12 12 12 13 13 13 13 13 14 14 14 14 14 14 14 14 14 14 14 14 14 14 14 14 14 15 15 15 15 15 15 15 15 14 14 14 14 13 13 13 13 13 12 12 11 11 10 10 9 9 9 9 9 9 9 8 8 8 8 8 8 8
10 10 10 10 10 10 10 10 10 10 10 11 11 11 11 11 11 11 11 10 11 11 11 11 12 12 12 12 12 13 13 13 13 13 14 14 14 14 14 14 14 14 14 14 14 14 14 14 14 15 15 15 15 15 15 15 14 14 14 14 13 13 13 13 13 12 12 11 11 10 10 9 9 9 8 8 8 8 8 8 8 8 8 8 8 8
10 10 10 10 10 10 10 10 10 10 10 10 11 11 11 11 11 11 11 10 10 10 11 11 11 12 12 12 12 12 12 13 13 13 13 13 13 14 14 14 14 14 14 14 14 14 14 14 14 15 15 15 15 15 15 14 14 14 14 14 13 13 13 13 12 12 11 11 11 10 10 9 9 8 8 8 8 8 8 8 8 8 8 8 8 8
10 10 10 10 10 9 10 10 10 10 10 10 10 10 10 10 10 11 11 11 10 10 10 10 11 11 11 12 12 12 12 12 12 13 13 13 13 13 13 13 13 14 14 14 14 14 14 14 14 14 15 15 15 15 15 14 14 14 14 13 13 13 12 12 11 11 11 10 10 10 9 9 8 8 8 8 8 8 8 8 8 8 8 8 8 8
10 10 10 10 9 9 9 9 9 9 9 10 10 11 10 10 10 10 11 11 10 10 10 10 10 11 11 11 12 12 12 12 12 12 12 13 13 13 13 13 13 13 13 13 13 14 14 14 14 14 14 14 14 14 14 14 14 14 13 13 12 12 12 11 11 10 10 10 9 9 8 8 8 8 8 8 8 8 7 7 7 7 7 7 7 7
10 10 10 10 10 10 9 9 9 9 10 10 10 11 10 10 10 10 10 10 10 10 10 10 10 10 10 11 11 12 12 12 12 12 12 12 12 13 13 13 13 13 13 13 13 13 14 14 14 14 14 14 14 14 14 14 14 13 13 12 12 11 11 10 10 9 9 9 8 8 7 7 7 7 7 7 7 7 7 7 7 7 7 7 7 7
11 10 10 10 10 10 10 9 9 10 10 10 10 10 10 10 10 10 10 10 10 10 9 9 9 9 9 10 10 11 11 12 12 12 12 12 12 12 12 12 13 13 13 13 13 13 13 13 13 13 14 14 14 14 14 13 13 13 12 12 11 11 10 10 9 9 9 8 8 7 7 7 7 7 7 7 7 7 7 7 7 7 7 7 7 7
11 10 10 10 10 10 10 10 10 10 10 10 10 10 10 10 10 10 10 10 10 9 9 9 9 9 9 9 10 10 11 11 11 11 11 12 12 12 12 12 12 12 13 13 13 13 13 13 13 13 13 13 14 14 13 13 12 12 11 11 11 10 10 10 9 9 8 8 7 7 6 6 6 6 7 7 7 7 7 7 6 6 7 7 7 7
10 10 10 10 10 10 10 10 10 10 10 10 10 10 10 10 10 10 10 10 10 9 9 10 10 10 10 9 9 10 10 11 11 11 11 11 12 12 12 12 12 12 12 13 13 13 13 13 13 13 13 13 13 13 13 13 12 12 11 11 11 10 10 10 9 9 9 8 7 7 6 6 6 6 7 7 7 7 6 6 6 6 6 6 7 7
10 10 10 10 10 10 10 10 9 9 10 10 10 10 10 10 10 10 10 10 10 10 10 10 11 11 11 11 10 10 10 11 11 11 11 11 11 11 11 12 12 12 12 12 12 13 13 13 13 13 13 13 13 13 13 12 12 12 11 11 10 10 10 9 9 9 8 8 7 6 6 6 7 7 7 7 7 6 6 6 6 6 6 6 7 7
9 9 9 10 10 10 9 9 9 9 9 10 9 9 9 9 10 10 10 10 10 10 10 10 11 11 11 11 11 11 10 10 11 11 10 10 11 11 11 11 12 12 12 12 12 12 13 13 13 13 13 13 13 13 12 12 12 12 11 11 10 10 10 9 9 8 7 7 6 6 6 7 7 7 7 7 6 6 6 6 6 6 6 6 6 6
8 9 9 9 9 9 9 9 9 9 9 9 9 9 9 9 9 9 10 10 10 10 10 10 11 11 11 12 11 11 10 10 10 11 10 10 10 10 11 11 11 11 11 12 12 12 12 12 13 12 12 13 12 12 12 12 12 11 11 11 10 10 9 8 8 7 6 6 6 7 7 8 8 7 7 6 6 6 6 6 6 6 6 6 6 6
8 8 9 9 9 9 9 9 9 9 9 9 9 9 9 9 9 9 9 10 10 10 10 10 11 11 11 11 11 11 10 10 11 11 10 9 9 9 10 10 11 11 11 11 11 11 12 12 12 12 12 12 12 12 12 12 11 11 10 10 9 9 8 7 7 6 6 7 7 8 8 8 8 7 6 6 6 6 5 5 5 5 5 5 5 5
7 8 8 8 9 9 9 9 9 9 9 9 9 9 9 9 9 9 9 9 9 10 10 10 10 10 10 10 10 10 10 10 10 11 10 9 8 8 9 10 10 10 10 10 11 11 11 11 12 12 12 12 12 12 12 11 11 10 10 9 8 8 7 6 6 6 7 7 8 8 8 7 7 6 6 6 6 6 5 5 5 5 5 5 4 4
7 7 8 8 8 8 8 8 9 9 9 9 9 9 9 9 9 9 9 9 9 9 9 8 8 9 9 9 9 9 9 9 10 10 10 10 9 8 8 9 9 9 9 10 10 10 10 10 11 11 11 11 11 11 11 11 10 10 9 8 8 7 6 6 7 7 7 7 7 7 7 7 6 6 6 6 6 5 5 5 5 5 4 4 4 4
7 7 7 7 8 8 8 8 8 8 8 8 8 8 8 8 8 8 8 8 8 8 8 7 7 7 6 7 7 8 8 8 9 9 10 10 9 8 8 8 8 8 8 8 9 9 9 9 10 10 10 10 10 10 10 10 9 9 8 7 7 7 7 7 7 7 7 7 7 7 6 6 6 6 6 6 6 5 5 5 4 4 4 4 4 4
6 6 7 7 7 7 7 7 7 8 8 8 8 8 8 8 8 8 7 7 7 7 7 7 6 5 5 5 5 6 6 7 8 8 9 9 8 6 6 7 7 7 7 7 7 8 8 8 8 8 8 8 8 8 9 8 8 8 7 7 7 7 7 7 7 7 7 7 6 6 6 6 6 6 6 6 5 5 5 4 4 4 4 4 3 3
6 6 6 6 7 7 7 7 7 7 7 7 8 8 8 7 7 7 7 7 7 7 7 6 5 5 5 4 4 4 5 6 6 7 8 8 7 5 5 6 6 6 6 6 6 7 7 7 7 7 7 7 7 7 7 7 7 7 7 7 7 7 7 7 7 7 7 6 6 6 6 6 6 6 6 5 5 5 4 4 4 4 3 3 3 3
6 6 6 6 6 6 6 6 6 6 7 7 7 7 7 7 7 6 6 6 6 7 7 6 6 5 4 4 4 4 4 5 5 6 6 7 6 5 4 5 6 6 5 5 5 6 6 6 6 6 6 6 6 6 6 6 6 6 6 7 7 7 7 7 7 6 6 6 6 6 6 6 6 5 5 5 5 4 4 4 3 3 3 3 3 3
6 6 6 6 6 6 6 6 6 6 6 6 6 7 7 7 7 7 6 6 6 6 6 6 6 5 4 4 3 4 4 4 5 5 6 6 5 4 4 5 5 5 5 4 5 5 5 5 6 6 6 6 6 6 6 6 6 6 6 6 6 6 6 6 6 6 6 6 6 6 6 6 5 5 5 5 5 4 4 3 3 3 3 3 3 3
5 5 5 5 5 5 5 5 5 5 6 6 6 6 6 6 7 7 7 6 6 6 6 6 5 5 4 4 3 4 4 4 4 5 5 5 4 4 4 4 4 5 5 5 4 4 4 4 5 6 6 6 6 6 5 5 6 6 6 6 6 6 6 6 6 6 6 6 6 6 5 5 5 5 5 4 4 4 3 3 3 3 2 2 2 2
5 5 5 5 5 5 5 5 5 5 5 5 5 6 6 6 6 6 6 6 6 6 6 5 5 4 4 4 4 4 3 4 4 4 5 4 3 3 4 4 4 4 5 5 5 4 3 3 4 5 5 6 6 5 5 5 5 5 5 5 5 5 6 6 6 6 6 6 5 5 5 5 5 5 4 4 4 3 3 3 2 2 2 2 2 2
5 4 4 5 5 5 5 5 5 5 5 5 5 5 5 6 6 6 6 6 6 6 6 5 5 4 5 5 5 4 3 3 4 4 5 4 3 3 3 3 3 4 4 5 6 6 4 3 3 4 5 5 5 5 5 5 5 5 5 5 5 5 5 5 5 5 5 5 5 5 5 5 4 4 4 4 3 3 3 2 2 2 2 2 2 2
4 4 4 4 4 5 5 5 5 5 5 5 5 5 5 5 5 5 5 6 6 6 6 5 5 4 5 5 4 4 3 3 4 4 5 4 3 3 3 3 3 3 4 4 5 5 4 3 3 4 4 5 5 5 5 5 5 4 4 4 4 4 4 4 5 4 4 4 4 4 4 4 4 4 4 3 3 3 2 2 2 2 2 2 2 2
4 4 4 4 4 4 4 4 4 4 4 4 5 5 5 5 5 5 5 5 5 6 6 6 5 5 4 4 4 3 3 3 3 4 4 4 4 3 3 3 3 3 3 3 4 4 3 3 3 3 3 4 4 4 4 4 4 4 4 4 4 4 4 4 4 4 4 4 4 3 3 3 3 3 3 3 3 2 2 2 2 2 2 2 2 2
4 4 4 4 4 4 4 4 4 4 4 4 4 5 5 5 5 5 5 5 5 5 5 5 5 5 5 5 4 4 3 3 3 4 4 4 4 3 3 3 3 3 3 3 3 3 3 2 2 2 2 3 3 4 4 4 4 4 4 4 4 4 4 4 4 4 3 3 3 3 3 3 3 3 3 2 2 2 2 2 2 2 1 1 1 1
4 4 4 4 4 4 4 4 4 4 4 4 4 4 4 5 5 5 5 5 5 5 5 5 5 5 5 6 5 5 4 4 4 4 4 4 4 4 3 3 3 3 3 3 3 3 3 2 2 2 2 2 2 3 3 4 4 4 4 4 4 4 4 4 4 4 3 3 3 3 3 2 2 2 2 2 2 2 2 2 1 1 1 1 1 1
4 4 4 3 3 3 3 3 3 3 3 4 4 4 4 4 4 5 5 5 5 5 5 5 5 5 5 5 6 5 5 5 4 4 4 4 4 4 3 3 3 3 3 3 3 3 3 3 2 2 2 2 1 2 2 3 4 4 4 4 4 4 4 3 3 3 3 3 3 3 2 2 2 2 2 2 2 2 2 2 1 1 1 1 1 1
3 3 3 3 3 3 3 3 3 3 3 3 3 4 4 4 4 4 4 4 5 5 5 5 5 5 5 5 5 5 5 4 4 4 4 4 4 4 4 4 3 4 3 3 3 3 3 3 3 3 2 2 1 1 2 3 3 3 3 3 3 3 3 3 3 3 3 3 3 2 2 2 2 2 2 2 2 2 2 2 2 2 1 1 1 1
3 3 3 3 3 3 2 2 2 2 3 3 3 3 3 4 4 4 4 4 4 4 4 4 4 4 4 4 4 4 4 4 3 4 4 4 4 4 4 4 4 4 3 3 3 3 3 3 3 3 3 2 1 1 2 2 2 3 3 3 3 3 3 3 3 3 3 3 2 2 2 2 2 2 2 2 2 2 2 2 2 2 2 1 1 1
3 2 2 2 2 2 2 2 2 2 2 2 3 3 3 3 3 3 4 4 4 4 4 4 4 4 4 4 3 3 3 3 3 3 4 4 4 4 4 4 4 4 4 4 3 3 3 4 4 3 3 3 2 1 2 2 2 2 2 2 2 2 3 3 3 3 2 2 2 2 2 2 2 2 2 2 2 2 2 2 2 2 2 2 1 1
2 2 2 2 2 2 2 2 2 2 2 2 2 2 3 3 3 3 3 3 3 3 3 4 3 3 3 3 3 3 3 3 3 3 4 4 4 4 4 4 4 4 4 4 4 4 4 4 4 3 3 2 2 2 2 2 2 2 2 2 2 2 2 2 2 2 2 2 2 2 2 2 2 2 2 2 2 2 2 2 2 2 2 1 1 1
2 1 1 1 1 2 2 2 2 2 2 2 2 2 2 2 2 2 2 2 2 2 3 3 3 3 2 2 2 2 3 3 3 3 3 4 4 4 4 4 4 4 4 4 4 4 4 4 4 3 3 2 2 1 1 1 2 2 2 2 2 1 2 2 2 2 2 2 2 2 2 2 2 1 1 1 1 1 2 2 2 1 1 1 1 1
2 1 1 1 1 1 1 1 1 1 1 2 2 2 2 2 2 2 2 2 2 2 2 2 2 2 1 1 1 2 2 2 3 3 3 3 4 4 4 4 4 4 4 4 4 3 4 4 4 3 3 3 2 2 1 1 1 1 2 1 1 1 1 1 1 2 2 2 2 2 1 1 1 1 1 1 1 1 1 1 1 1 1 1 1 1
1 1 1 1 1 1 1 1 1 1 1 1 1 1 1 2 2 2 2 2 1 1 2 2 2 2 1 0 0 1 1 2 2 3 3 3 3 4 4 3 3 3 4 4 3 3 3 3 3 3 3 3 2 2 1 1 1 1 1 1 1 1 1 1 1 1 1 1 1 1 1 1 1 1 1 1 1 1 1 1 1 1 1 1 1 1
1 1 1 1 1 1 1 1 1 1 1 1 1 1 1 1 1 1 2 1 1 1 1 1 1 1 -0 -1 -0 0 1 1 2 2 2 3 3 3 3 3 3 3 3 3 3 3 3 2 2 2 2 2 2 2 1 1 1 1 1 1 1 1 1 1 1 1 1 1 1 1 1 1 1 1 1 1 1 1 1 1 1 1 1 1 1 1
1 1 0 0 0 0 0 0 0 1 1 1 1 1 1 1 1 1 1 1 1 1 1 1 1 0 -1 -1 -1 -1 -0 0 1 1 2 2 2 3 3 3 3 3 3 3 3 3 3 2 2 2 1 1 1 1 1 1 1 0 0 0 0 0 0 0 1 1 1 1 1 1 1 1 1 1 1 1 1 1 1 1 1 1 1 1 1 1
1 0 0 0 0 0 -0 0 0 0 0 0 0 0 0 0 1 1 1 1 1 0 0 1 1 -0 -1 -1 -1 -1 -1 -1 -0 0 1 1 1 2 2 2 2 3 3 3 3 3 2 2 2 2 1 1 0 0 0 0 0 0 0 0 0 0 0 0 1 1 1 1 1 1 1 1 1 1 0 0 0 1 1 1 1 1 1 1 1 1
0 0 0 -0 -0 -0 -0 -0 -0 -0 -0 -0 -0 -0 -0 0 0 0 0 0 0 0 0 0 -0 -1 -1 -1 -1 -1 -1 -1 -1 -1 -0 0 1 1 1 2 2 2 2 2 2 2 2 2 2 2 2 1 0 -0 -0 -0 -0 -0 -0 -0 -0 -0 -0 0 0 1 1 1 1 1 0 0 0 0 0 0 0 0 0 0 0 1 1 1 1 1
0 0 -0 -0 -0 -1 -1 -1 -1 -1 -1 -1 -1 -1 -0 -0 0 0 -0 -0 0 0 -0 -0 -1 -1 -1 -1 -1 -1 -1 -2 -2 -1 -1 -1 -0 0 0 1 1 1 1 1 1 1 1 1 1 1 1 1 1 0 -0 -0 -0 -0 -0 -0 -0 -0 -0 -0 0 0 0 0 0 0 0 0 0 0 -0 -0 -0 -0 -0 -0 0 0 0 0 0 0
0 0 -0 -0 -0 -1 -1 -1 -1 -1 -1 -1 -1 -1 -1 -0 -0 -0 -0 -0 -0 -0 -0 -0 -1 -1 -1 -2 -2 -2 -2 -2 -2 -2 -2 -1 -1 -0 -0 -0 0 0 -0 -0 -0 -0 -0 -0 -0 -0 0 1 1 0 -0 -1 -1 -1 -0 -0 -0 -1 -1 -1 -0 -0 -0 -0 -0 -0 -0 -0 -0 -0 -0 -0 -1 -1 -1 -0 -0 -0 0 0 0 0
-0 -0 -0 -0 -1 -1 -1 -1 -1 -1 -1 -1 -1 -1 -1 -1 -0 -0 -0 -0 -0 -0 -0 -1 -1 -1 -1 -2 -2 -2 -2 -2 -2 -2 -2 -2 -1 -1 -1 -1 -0 -1 -1 -1 -1 -1 -1 -1 -2 -1 -1 -1 -0 0 -0 -1 -1 -1 -1 -1 -1 -1 -1 -1 -1 -1 -1 -1 -1 -1 -1 -1 -1 -1 -1 -1 -1 -1 -1 -1 -1 -0 -0 -0 -0 -0
Height
742 744 746 748 749 752 754 756 758 760 762 763 765 766 767 769 770 771 772 773 774 775 777 778 779 780 781 783 784 786 788 789 791 793 794 796 797 798 799 801 802 803 805 807 808 810 811 813 814 816 817 818 818 820 821 822 823 824 825 826 828 828 828 828 828 829 831 833 835 837 838 841 842 844 845 847 849 850 852 854 856 857 859 860 862 863
741 743 744 746 747 749 751 753 755 757 759 762 763 764 765 767 768 769 770 771 772 774 775 776 777 778 779 781 782 784 786 788 789 791 792 794 795 797 798 799 800 802 803 804 806 808 809 811 812 813 815 816 817 818 819 821 822 823 823 824 825 826 826 826 826 827 828 830 832 834 836 838 840 842 844 845 847 849 851 853 854 856 857 859 861 862
740 741 742 743 745 746 748 750 752 754 757 760 762 763 764 765 767 768 768 769 770 772 774 775 776 777 778 779 780 782 783 785 787 789 790 792 793 795 796 798 798 800 801 802 803 805 807 808 809 811 813 814 815 816 817 818 819 820 821 822 823 823 824 824 824 824 825 827 829 831 833 836 838 840 842 843 845 847 849 851 852 854 856 858 859 861
738 739 740 741 743 744 745 747 748 751 754 758 760 762 763 764 765 766 767 767 769 770 772 773 774 775 776 777 778 780 781 783 785 787 788 790 791 793 794 796 797 798 799 800 801 803 804 805 807 808 810 812 813 814 815 816 817 818 819 820 820 821 822 822 822 822 823 825 827 829 831 834 836 838 840 842 843 845 847 849 851 852 854 856 858 860
738 738 739 740 741 743 743 745 747 749 752 755 758 760 762 763 764 765 765 766 768 769 770 772 773 773 774 775 776 777 779 781 783 784 786 788 789 790 792 793 795 796 797 798 799 801 802 803 804 806 808 809 811 812 813 814 815 816 817 817 818 818 819 820 820 820 822 823 825 828 830 832 834 836 838 840 842 844 846 847 849 851 853 854 857 858
737 738 738 739 740 741 743 744 745 748 750 754 757 759 760 761 762 763 764 765 766 768 769 770 771 772 772 773 773 775 777 778 780 782 783 785 787 788 790 791 793 794 795 796 798 799 800 801 803 804 806 808 809 810 811 812 813 814 814 815 815 816 817 818 818 819 821 822 824 826 828 830 832 833 836 838 840 842 844 846 848 849 851 853 855 857
736 737 738 739 740 741 742 743 744 746 748 752 755 758 758 759 760 761 763 764 765 767 768 768 769 770 771 771 772 773 775 777 778 780 782 783 785 786 788 789 790 792 793 794 796 797 798 799 801 802 804 805 807 807 808 809 811 812 812 812 813 813 814 815 817 818 819 821 823 824 826 828 829 831 833 836 838 840 842 844 846 848 850 852 854 856
735 736 737 738 739 741 742 743 743 744 746 750 753 755 757 758 758 760 761 762 764 765 766 767 768 768 769 770 771 772 773 775 776 778 779 781 783 784 785 787 788 789 791 792 793 795 796 797 798 800 801 803 804 805 806 807 808 809 809 810 810 811 812 813 814 816 818 819 821 823 824 826 828 830 832 834 836 838 840 843 844 847 849 851 853 855
732 734 735 736 737 739 741 742 743 743 745 747 750 752 754 755 757 758 759 761 762 763 764 765 766 766 767 768 769 770 771 773 774 775 777 778 780 782 783 784 786 787 788 790 791 792 793 795 796 798 799 800 801 803 803 804 805 806 807 808 808 809 810 811 812 814 816 818 819 821 823 825 826 828 830 832 835 837 839 841 843 845 847 850 852 854
729 731 733 734 735 736 738 739 741 742 744 746 747 748 750 752 754 756 758 758 759 761 762 763 764 764 765 766 767 768 769 771 772 773 774 776 778 779 781 782 783 785 786 787 788 790 791 792 793 795 796 798 798 800 801 802 803 804 804 805 806 807 808 809 810 812 813 815 817 819 821 823 825 827 829 831 834 836 838 840 842 844 846 848 851 853
728 729 731 732 734 735 736 737 738 740 743 744 746 747 748 749 750 752 754 755 757 758 760 760 761 762 763 764 765 766 768 769 770 771 773 774 776 777 779 780 781 782 783 785 786 787 788 789 791 792 793 794 796 797 798 799 800 801 802 803 804 805 806 807 808 809 811 813 815 817 820 822 824 826 828 831 833 835 837 839 841 843 845 848 850 852
727 728 729 731 732 734 735 736 738 739 741 743 745 746 746 746 747 748 749 751 753 755 756 757 758 759 760 761 763 764 765 766 768 769 770 772 773 775 777 778 779 780 781 782 783 784 785 787 788 789 790 792 793 794 795 796 798 798 799 800 802 803 804 805 806 807 809 811 813 816 818 821 823 825 828 830 832 834 836 838 840 842 844 847 849 851
725 726 728 729 731 732 733 735 737 738 740 740 741 742 742 743 744 745 747 748 750 752 753 755 756 757 758 759 760 761 762 763 765 766 768 769 771 773 774 775 777 778 779 780 781 781 783 784 785 786 788 789 790 791 793 793 794 796 797 798 800 801 803 804 805 806 808 810 812 814 817 819 822 824 827 829 831 833 835 837 839 841 843 845 847 849
724 725 726 728 729 730 731 733 734 735 736 736 736 737 738 740 742 743 745 747 748 750 751 753 754 755 756 757 758 758 759 761 763 764 765 767 768 769 771 773 773 775 776 777 778 778 779 781 782 783 784 786 787 788 790 791 792 793 795 796 798 799 801 803 804 806 808 810 812 814 816 818 820 823 825 827 829 831 833 835 837 839 841 843 845 846
724 724 725 725 726 727 728 729 730 731 731 732 733 735 737 738 739 741 743 745 747 749 751 751 752 753 753 754 755 756 757 758 760 762 763 764 766 767 769 770 771 772 773 774 774 775 776 778 779 780 782 783 784 786 787 788 789 791 792 794 796 798 799 801 803 805 807 809 811 813 815 817 819 821 823 826 828 829 831 833 835 837 839 841 843 844
723 723 723 723 723 724 724 726 727 728 728 730 732 734 735 736 737 738 740 742 744 747 748 749 750 751 752 751 752 753 754 755 757 759 760 762 763 765 767 768 769 770 771 771 772 773 774 775 776 777 778 779 781 783 784 786 787 789 790 792 793 795 797 799 801 803 806 808 810 812 813 816 818 820 822 824 826 828 830 832 833 835 837 838 840 842
723 723 722 722 722 722 722 723 724 725 727 728 730 731 731 732 733 735 737 739 742 743 745 746 747 748 749 749 749 750 751 753 754 756 758 759 761 763 764 766 767 768 768 769 769 770 771 773 774 775 775 776 778 779 781 783 785 786 788 789 791 793 795 797 799 801 803 806 808 810 812 814 817 819 821 823 825 826 828 830 832 833 835 837 839 840
722 722 722 722 721 721 721 722 723 723 725 726 727 728 729 729 731 732 734 736 738 740 741 742 742 743 744 746 746 746 747 750 752 754 756 757 758 760 762 764 764 765 766 766 767 768 768 770 771 772 773 774 775 777 778 780 782 784 786 788 789 791 793 795 797 799 801 803 806 808 810 813 815 818 820 822 823 824 826 828 830 832 834 835 837 839
721 721 721 721 721 721 721 721 721 722 723 723 724 726 728 728 729 730 731 733 734 735 737 738 738 738 739 739 739 740 743 747 749 751 753 754 756 758 760 762 763 763 764 764 764 765 766 768 769 770 771 772 773 775 776 778 780 782 784 786 788 790 791 793 795 797 799 801 803 805 808 811 813 816 818 820 821 823 825 827 829 831 833 834 836 838
720 720 720 720 720 720 720 720 720 720 721 721 722 723 725 726 727 728 728 730 731 732 733 734 735 735 735 736 736 738 740 744 747 749 751 752 753 755 757 759 761 761 762 762 763 763 764 765 767 768 769 771 772 773 775 777 778 781 783 785 787 788 790 791 793 795 797 798 801 803 806 809 812 814 816 818 820 822 824 826 828 830 832 834 836 838
720 719 719 720 720 720 719 719 719 720 720 721 722 722 723 723 724 725 726 727 728 729 731 732 732 732 733 734 735 735 738 741 744 747 749 750 752 753 754 757 758 759 760 760 761 762 763 763 764 766 768 769 771 772 774 775 778 779 782 783 785 787 788 790 791 793 795 797 800 803 805 808 810 812 814 816 819 821 824 826 828 830 832 834 836 838
719 718 718 719 719 719 718 718 718 719 719 720 720 721 721 722 722 723 723 724 725 726 727 728 728 730 732 733 733 733 735 738 740 743 746 749 750 750 752 754 756 757 757 758 759 760 761 762 763 764 765 767 769 771 772 774 776 778 780 782 784 786 787 789 790 792 795 797 800 802 804 806 808 811 813 816 818 821 823 825 827 829 831 833 835 837
719 718 718 718 718 718 718 718 718 718 718 719 719 719 720 720 721 721 722 723 723 723 724 725 727 729 730 731 731 733 734 736 738 740 743 746 747 748 750 751 753 754 755 756 757 758 759 760 761 762 764 765 767 769 771 773 775 777 779 781 783 784 786 788 790 793 795 798 800 802 803 806 808 810 813 815 818 820 822 824 826 828 830 832 834 836
718 718 717 717 717 718 718 718 718 718 717 718 718 718 719 719 720 721 721 722 723 723 724 725 726 728 728 729 730 732 733 735 736 738 739 741 743 745 747 749 751 752 753 754 755 756 757 758 759 761 763 764 765 767 768 771 773 775 777 779 781 783 785 788 791 793 796 798 799 801 803 805 808 810 812 814 817 819 821 823 825 827 829 831 833 835
718 718 717 717 717 717 718 718 717 717 717 717 717 717 718 719 719 720 721 721 722 723 723 725 726 727 728 728 729 730 732 733 734 735 736 738 740 743 745 747 748 750 751 753 754 754 755 757 758 760 762 764 765 766 767 769 771 773 775 777 779 782 785 788 791 793 795 797 799 801 803 805 807 809 812 814 816 818 821 823 825 827 829 831 833 834
717 717 717 717 717 717 717 717 717 717 716 716 716 716 717 718 718 719 720 721 722 722 723 725 727 728 728 729 729 730 731 731 732 732 733 734 738 741 743 744 746 748 750 752 753 754 754 756 757 759 761 763 765 766 767 768 770 772 774 776 779 782 785 788 790 792 794 796 798 801 803 805 807 809 811 813 815 818 820 822 824 826 828 830 832 833
717 717 717 716 716 716 717 717 717 716 716 716 715 715 716 716 718 718 719 719 720 721 723 725 726 728 729 730 730 730 730 731 731 731 731 732 735 738 741 743 744 747 749 752 753 754 755 755 757 758 760 763 765 768 768 769 771 772 774 777 779 782 785 787 789 791 793 796 798 801 803 805 807 809 811 813 815 817 819 821 823 825 827 829 831 833
717 717 717 716 716 716 716 716 716 716 716 715 715 715 715 716 717 717 717 718 719 720 721 723 725 727 728 729 730 730 730 731 731 730 731 731 732 735 738 741 743 745 747 750 753 754 755 756 758 758 760 762 765 768 770 772 773 774 776 778 780 782 784 786 788 791 793 796 798 800 803 805 807 808 810 812 814 817 818 821 823 824 826 828 829 831
717 717 717 716 716 716 716 716 716 716 716 715 715 715 715 715 715 715 716 717 718 719 720 721 723 725 727 728 729 730 730 730 730 730 731 731 732 733 736 738 740 742 745 748 752 754 756 758 759 760 761 763 765 768 771 773 775 777 778 779 780 782 783 785 788 790 793 795 798 800 802 804 806 808 810 812 814 816 818 819 821 823 825 827 828 830
717 717 717 717 716 716 716 716 716 716 716 716 715 715 715 715 715 715 716 717 718 718 719 721 722 724 726 728 730 731 731 730 730 730 731 731 732 733 735 737 738 740 742 745 751 755 758 759 760 761 762 763 765 768 770 773 775 778 779 781 782 783 784 786 788 790 793 795 798 800 802 804 806 808 809 811 813 815 817 818 820 822 823 825 827 829
717 718 718 717 717 716 716 716 716 717 716 716 716 715 715 715 715 716 716 717 717 718 718 720 721 723 724 726 729 730 730 730 730 730 731 731 731 732 733 735 737 738 739 741 746 753 758 761 761 762 763 764 766 768 770 772 774 776 778 781 783 784 785 786 788 790 793 795 797 799 801 803 805 807 809 811 813 814 816 818 819 821 822 824 826 828
718 718 718 718 717 716 716 716 716 717 717 716 716 716 715 715 716 716 716 717 717 718 718 719 721 722 723 724 725 727 728 728 729 730 731 731 732 733 733 734 736 738 738 739 740 744 752 758 761 762 763 764 766 768 770 772 773 775 777 779 782 784 785 787 788 791 793 795 797 799 801 803 805 807 808 810 812 814 815 817 818 820 821 823 825 826
718 719 719 718 717 716 716 716 716 717 717 716 716 716 716 716 716 716 717 717 718 718 718 719 720 722 723 723 724 725 727 728 729 730 730 731 733 734 734 734 735 737 738 739 739 740 744 750 755 759 763 764 766 768 770 772 773 775 776 778 780 783 785 787 789 791 793 795 798 799 801 803 804 806 808 810 812 813 815 816 818 819 820 822 823 825
718 719 719 718 718 717 716 716 717 717 717 717 716 716 716 716 717 717 717 718 718 718 718 719 719 721 722 723 724 725 727 728 728 729 730 731 732 733 734 735 735 736 737 739 740 741 743 747 751 756 760 764 766 768 770 772 774 775 776 778 780 782 784 787 788 791 793 795 797 799 801 803 804 806 808 809 811 813 814 816 817 818 819 821 822 824
718 719 719 718 718 717 717 717 717 718 717 717 716 716 716 716 717 717 718 718 718 719 719 720 720 720 721 722 723 724 726 727 728 729 731 731 732 733 735 736 736 736 737 738 740 743 746 748 750 752 757 762 766 769 771 772 774 776 777 778 780 782 784 786 788 790 792 794 796 798 800 802 804 806 808 809 811 812 813 815 816 818 819 820 821 823
718 718 718 718 718 718 717 717 718 718 717 717 716 716 716 716 717 718 718 718 719 719 720 720 721 721 721 721 722 723 724 725 728 729 730 731 732 733 735 736 737 737 738 739 740 743 747 750 752 752 754 759 764 768 770 772 774 776 778 780 781 783 785 787 788 790 792 794 796 798 799 801 803 805 807 808 810 811 813 814 816 817 818 819 821 822
718 718 718 718 718 718 718 718 718 718 717 717 716 716 716 717 717 718 718 718 719 719 720 720 721 722 722 723 723 723 723 724 726 728 730 731 732 733 735 737 738 738 738 739 741 743 747 750 753 755 756 758 761 765 768 771 774 776 778 780 782 783 785 787 788 790 791 793 795 797 799 801 803 804 806 808 810 811 813 814 815 817 818 819 820 822
718 718 718 718 718 718 718 718 718 717 717 717 717 717 717 717 717 718 718 719 719 720 720 721 721 722 723 723 723 724 724 725 726 728 729 731 733 734 735 737 739 740 740 740 741 743 745 749 753 756 758 759 761 763 765 768 772 775 777 779 782 783 785 787 788 789 791 793 794 796 798 800 802 803 805 807 809 810 812 813 815 816 818 818 820 821
717 717 717 717 718 718 718 718 718 717 717 717 717 717 717 717 717 718 718 719 719 720 720 721 722 722 723 723 724 725 725 726 727 728 730 731 733 734 735 737 739 741 742 743 743 744 745 747 749 753 757 760 763 764 766 768 770 773 776 779 782 784 785 787 788 789 791 792 794 796 798 799 801 803 804 806 807 808 810 811 813 815 816 818 819 820
717 716 716 716 717 717 717 718 717 717 717 717 717 718 718 718 718 718 718 719 720 720 721 721 722 723 723 724 725 726 727 727 728 729 730 731 733 734 735 737 739 741 743 745 746 747 748 748 750 751 753 758 762 765 767 769 770 773 775 778 781 783 785 786 788 789 790 792 793 795 797 798 800 801 803 804 805 807 808 809 811 813 814 815 817 818
716 716 716 716 716 717 717 717 718 718 718 718 718 718 718 718 718 718 719 719 720 721 721 722 722 723 724 724 725 727 728 728 729 730 731 732 733 734 736 737 738 740 743 745 747 748 749 750 752 753 755 758 761 764 767 769 771 773 774 777 779 781 783 785 787 788 790 791 793 794 795 797 798 800 802 803 804 805 806 808 809 811 812 813 815 816
715 715 715 716 716 716 717 717 718 718 718 718 718 719 719 719 719 719 719 720 720 721 722 722 723 723 724 726 727 728 728 729 730 731 732 733 734 735 736 738 739 740 742 745 747 749 750 751 753 754 756 758 761 764 768 770 771 773 774 776 778 781 783 785 786 788 789 790 792 793 794 796 797 799 800 802 803 804 806 807 808 809 811 812 813 814
715 715 715 716 716 716 717 718 718 718 719 719 719 719 719 719 719 719 719 720 720 721 722 722 723 724 725 726 728 728 729 730 731 733 733 734 735 736 737 738 739 741 742 744 746 749 751 752 753 755 756 758 760 763 767 769 772 773 775 776 778 780 783 784 785 787 788 789 791 792 793 795 796 798 799 801 803 804 805 806 808 808 809 810 812 813
714 715 715 715 716 716 717 718 718 718 719 719 719 720 720 720 720 720 720 720 721 722 722 723 723 724 725 727 728 729 730 731 732 733 734 735 736 737 738 739 740 742 743 744 746 748 750 752 754 755 757 758 760 763 765 768 771 773 774 776 777 778 779 780 783 785 787 788 790 791 793 794 796 797 799 801 802 803 804 805 806 807 808 809 810 812
714 714 715 716 716 717 717 718 718 718 719 719 719 720 720 721 721 721 721 721 721 722 723 723 723 725 727 728 729 730 731 732 733 733 735 736 737 738 739 740 742 743 744 745 746 747 749 751 753 756 758 759 761 763 765 767 769 772 773 775 777 778 778 779 781 783 785 787 788 790 792 793 795 797 798 800 801 802 803 803 805 806 807 808 809 810
713 714 715 715 716 717 717 718 718 718 719 719 720 720 721 721 721 721 721 721 722 723 723 723 724 725 727 728 729 730 731 732 733 734 735 736 737 738 739 741 742 743 745 746 747 748 749 750 752 755 758 760 762 763 764 766 768 770 773 774 776 778 779 780 781 782 783 785 787 789 791 792 794 796 797 798 799 800 801 802 803 804 805 807 808 809
713 713 714 715 716 716 717 717 718 718 719 719 720 720 721 721 721 722 722 722 722 723 723 724 725 726 727 728 729 730 731 732 733 734 735 737 738 738 740 741 742 743 745 746 748 749 751 752 753 755 757 759 762 764 765 766 768 769 771 773 775 776 778 779 780 782 783 784 786 788 789 791 793 794 796 797 798 799 800 801 803 803 804 805 806 808
712 713 714 714 715 716 717 717 718 718 719 719 720 720 721 721 722 722 722 723 723 723 724 724 725 727 728 729 730 730 731 732 733 734 735 737 738 739 740 741 742 743 745 746 748 750 752 754 756 757 758 758 760 763 765 766 768 769 771 773 774 775 777 778 779 781 782 783 785 786 788 790 791 793 794 796 797 798 799 800 802 803 803 804 805 806
712 712 713 714 715 715 716 717 718 718 718 719 720 720 721 722 722 722 723 723 723 723 724 725 726 727 728 730 731 731 732 732 733 734 735 737 738 739 740 742 743 744 745 747 749 751 753 755 757 758 760 760 760 761 763 766 768 769 771 773 774 775 776 777 778 779 781 783 784 785 787 788 790 791 793 795 796 797 798 799 800 801 803 803 804 805
711 712 713 713 714 715 716 716 717 718 718 719 719 720 721 722 722 723 723 723 724 724 725 725 726 727 728 730 731 732 732 733 733 735 736 737 738 739 740 742 743 744 746 748 750 752 754 756 758 759 760 761 761 762 763 765 767 769 771 773 773 774 775 776 777 778 780 781 783 784 786 788 789 791 792 793 795 796 797 798 799 800 801 803 803 805
710 711 712 713 713 714 715 716 717 717 718 718 719 720 721 722 722 723 723 724 724 725 725 726 727 727 728 730 731 732 732 733 734 735 736 737 738 739 740 742 743 744 746 749 751 753 755 757 759 761 761 762 762 763 763 764 766 768 771 772 773 774 774 775 777 778 779 781 782 784 785 787 788 790 791 792 793 795 796 797 798 799 800 801 803 804
Wind_Speed
27 29 31 32 32 32 33 36 36 35 36 37 36 35 35 36 36 35 35 33 32 32 32 32 31 32 33 35 36 36 36 37 37 37 38 38 38 38 37 36 34 32 31 31 32 33 33 33 34 34 35 34 34 34 33 34 34 34 35 35 37 39 42 44 45 45 45 44 43 42 40 39 38 37 36 34 33 32 32 31 30 29 28 27 26 24
25 27 29 31 32 31 31 34 36 35 35 34 33 32 32 35 36 35 34 34 33 33 32 32 31 31 32 34 36 37 37 37 37 37 37 37 37 37 37 36 34 32 32 33 34 35 35 34 34 34 34 35 35 36 36 36 36 35 33 33 35 38 42 44 46 47 46 45 44 43 42 40 39 38 37 35 34 33 32 32 31 30 29 27 26 25
22 24 27 30 32 31 30 32 35 36 35 34 32 30 30 32 34 34 34 34 34 34 34 34 33 32 32 33 35 37 38 38 38 38 38 37 37 36 36 35 34 33 33 34 35 36 36 35 35 35 35 35 36 37 37 36 35 33 31 31 33 37 42 44 46 46 46 46 45 44 43 42 41 39 38 36 35 34 33 33 32 31 29 28 26 25
19 21 24 27 30 31 31 33 35 36 36 36 33 30 29 29 31 33 33 33 33 34 35 36 35 35 34 34 34 36 38 39 39 39 38 38 37 37 35 34 34 33 33 34 34 35 36 36 36 36 36 36 37 37 36 34 33 31 30 30 32 37 42 45 46 46 46 46 45 44 43 42 41 40 39 37 36 35 34 33 32 31 29 28 26 25
17 19 22 24 25 27 29 32 34 35 36 36 34 31 29 29 30 31 31 31 32 33 35 35 35 35 35 35 35 36 37 38 39 39 39 39 39 38 37 36 35 34 34 33 34 34 35 36 36 36 37 37 38 37 35 33 32 31 30 30 33 38 43 45 46 46 46 45 45 44 43 43 42 42 40 38 37 36 34 33 32 31 30 28 27 26
18 19 20 21 22 22 25 27 30 33 33 33 32 31 30 30 30 30 29 29 30 32 33 34 34 34 34 35 35 35 35 37 38 39 39 39 40 40 40 39 38 37 37 35 35 34 35 36 36 37 37 38 38 37 35 33 32 32 31 32 35 40 45 47 46 46 45 45 44 44 44 44 44 43 41 39 37 36 34 33 32 31 29 28 27 26
18 19 20 20 20 20 21 23 27 29 30 29 29 29 29 30 30 30 30 31 31 31 32 33 34 33 33 33 33 33 34 34 36 37 38 39 40 41 41 41 40 40 39 39 38 38 37 38 38 38 39 38 38 36 35 34 34 33 33 34 38 43 47 48 47 46 45 45 45 45 46 46 45 44 42 40 37 36 34 33 32 31 30 28 27 26
18 19 20 20 19 18 19 21 25 28 29 29 28 27 27 28 28 29 30 31 31 31 31 31 32 33 33 32 31 31 32 33 34 35 36 37 38 39 40 40 40 40 40 40 40 40 40 40 40 40 39 38 37 36 35 35 35 34 34 36 40 45 49 49 48 47 46 46 46 47 47 47 46 44 42 39 37 36 35 33 32 31 30 28 27 27
19 19 20 21 21 19 18 20 24 28 30 30 29 27 26 26 26 27 28 29 30 31 31 30 31 32 33 33 32 32 32 32 33 34 35 36 36 37 37 38 38 39 39 40 40 41 41 41 41 40 39 38 37 36 36 35 35 35 36 38 43 47 50 50 49 48 48 48 48 48 48 47 46 44 41 39 37 36 35 34 32 31 30 28 27 27
21 21 21 22 23 23 20 20 24 29 32 31 31 30 28 27 26 25 24 26 28 30 31 31 32 32 33 34 34 34 33 33 33 34 34 35 35 36 36 36 36 37 38 38 39 39 40 40 39 39 39 38 37 36 36 35 35 35 37 40 45 48 50 50 50 49 50 50 50 49 49 47 45 42 40 38 37 36 35 33 32 31 29 28 27 26
19 21 21 21 22 23 23 22 24 28 32 31 30 30 29 29 28 25 23 24 26 29 31 32 34 34 34 34 34 35 34 34 34 34 34 35 35 35 35 36 36 37 37 38 38 39 39 39 39 39 38 38 37 36 35 35 35 37 39 42 46 49 51 51 51 51 51 52 51 50 49 46 44 41 39 38 37 36 35 33 31 30 29 28 27 26
17 18 19 20 20 20 21 21 23 26 29 27 24 22 24 27 28 27 26 24 25 27 30 32 34 35 35 34 35 35 34 34 33 33 34 34 35 35 35 35 36 37 37 38 38 39 39 39 39 39 39 38 37 36 35 35 36 38 41 44 48 50 51 52 52 52 52 52 51 50 48 45 43 41 39 38 37 36 34 32 31 30 29 28 27 26
17 18 18 19 19 19 19 18 19 21 24 24 22 20 21 24 26 27 26 24 25 27 29 30 31 33 34 35 35 34 34 34 33 33 33 33 34 34 34 35 35 36 36 37 38 39 40 40 40 40 39 38 37 36 35 35 37 40 43 46 49 51 52 52 52 52 52 51 50 49 47 44 42 40 39 38 36 35 33 32 31 30 30 29 29 29
15 16 17 17 18 19 19 19 19 20 22 24 25 25 24 24 25 25 23 23 24 26 27 27 28 30 31 33 34 34 33 33 32 32 32 33 33 33 33 34 34 34 35 36 38 39 40 40 40 40 39 38 37 36 35 37 39 41 45 48 51 52 52 52 51 51 50 49 48 47 45 43 41 40 38 37 36 35 34 33 33 32 32 32 32 32
13 14 14 14 16 18 21 21 21 22 25 26 27 26 24 24 25 25 22 21 21 23 24 24 25 26 28 30 32 33 33 32 32 31 31 32 33 33 33 33 33 33 34 35 37 38 39 39 39 39 38 37 36 35 36 38 40 44 47 50 52 52 52 52 51 50 49 48 46 45 44 42 41 40 39 38 37 36 36 35 35 35 36 36 35 35
11 13 13 13 15 19 22 23 24 24 26 26 26 25 23 23 24 25 23 22 21 21 21 20 18 19 22 27 30 32 32 32 31 31 30 32 32 32 32 32 32 33 33 34 35 36 37 37 38 37 37 36 36 35 37 39 43 46 49 51 52 52 52 52 51 50 49 47 46 45 43 43 42 41 40 39 38 37 37 37 37 38 38 38 38 37
10 12 14 14 15 18 22 24 25 25 25 25 25 25 24 24 25 25 25 23 21 20 20 18 12 8 10 18 26 31 32 31 30 29 29 30 31 32 32 31 31 32 32 33 33 34 35 35 35 36 36 36 36 37 38 41 45 48 51 52 53 53 53 53 52 51 50 48 47 46 45 44 43 42 41 39 38 38 38 39 39 39 39 40 39 39
10 12 13 13 14 16 19 21 23 24 24 24 24 25 25 26 26 26 25 24 21 20 19 19 15 10 7 9 20 30 33 32 29 27 26 28 30 31 32 31 31 31 32 32 33 33 34 34 35 35 35 36 37 38 40 43 46 49 52 53 53 54 54 53 53 52 52 51 50 48 47 45 43 41 39 38 38 38 39 40 40 40 40 40 40 40
11 12 13 13 13 14 16 18 20 22 22 23 24 24 23 24 25 26 26 25 24 23 22 20 19 18 17 13 20 30 34 34 30 27 24 26 29 31 31 31 31 31 32 32 33 33 33 34 34 34 35 36 38 39 42 44 47 50 52 53 54 54 55 55 54 53 53 53 52 50 47 44 41 38 37 37 38 39 40 40 40 40 40 40 39 39
13 14 15 14 14 14 15 18 20 22 23 24 26 25 23 23 24 24 25 26 26 25 24 23 22 22 21 19 22 28 34 34 31 27 24 25 28 30 31 31 31 31 32 33 33 33 33 33 34 34 35 36 38 41 43 45 48 50 52 53 54 55 56 56 55 55 54 53 51 48 44 40 38 37 37 37 38 39 39 39 39 39 39 39 38 37
14 15 17 16 15 14 16 19 21 23 24 24 24 24 23 23 23 23 25 26 26 25 24 23 24 25 23 21 22 27 33 35 32 26 22 22 25 29 31 32 32 32 32 33 33 34 34 34 35 35 36 37 39 41 43 46 48 50 53 54 55 56 56 56 56 55 53 50 47 43 39 37 36 36 36 37 37 37 37 37 37 37 37 36 36 35
15 16 16 17 17 18 18 20 22 23 24 23 23 22 22 21 22 23 24 25 25 25 24 24 25 26 24 23 24 27 33 36 33 28 22 18 20 26 31 33 32 31 32 33 34 34 35 36 36 37 38 39 41 43 45 47 49 51 53 55 56 56 56 56 55 53 49 45 41 38 36 36 36 35 35 35 35 35 35 36 36 36 35 34 34 34
15 16 16 17 18 19 20 20 21 23 24 23 24 24 23 22 22 22 22 23 23 23 23 24 24 23 22 23 24 27 32 36 36 31 24 17 18 24 31 33 31 29 31 33 34 35 36 37 38 39 40 42 44 45 47 49 51 53 54 55 56 56 56 55 52 48 44 40 38 37 36 36 35 34 33 32 32 32 33 33 34 35 34 34 33 32
14 15 16 16 17 18 19 20 20 21 23 23 24 24 23 23 22 21 20 20 20 19 19 18 17 16 17 20 24 28 33 37 35 30 25 20 20 25 30 31 29 27 29 32 34 36 37 38 39 41 43 45 47 49 50 51 53 54 56 56 57 56 54 51 47 43 40 38 37 37 36 35 34 32 31 30 30 30 31 32 32 33 33 32 32 31
14 15 15 15 16 17 18 19 19 20 21 23 23 23 22 21 20 19 18 17 17 16 14 12 10 10 13 18 23 28 33 36 34 29 25 21 21 24 29 30 28 26 26 29 32 35 37 38 39 41 44 47 50 51 52 53 55 56 57 57 56 55 51 47 43 40 39 38 37 37 36 34 32 31 30 29 29 29 30 31 31 31 31 31 31 31
13 14 14 14 14 15 16 17 17 18 20 21 23 23 22 20 19 17 15 15 15 15 14 12 9 8 10 12 16 21 26 30 30 28 25 21 20 22 26 28 28 27 25 25 28 31 33 35 37 40 43 46 48 50 52 53 55 56 57 56 55 52 48 44 42 40 39 38 37 36 34 33 31 30 29 29 29 29 30 31 31 32 32 32 31 30
11 12 13 12 12 12 13 14 15 16 18 20 22 23 22 21 19 17 15 16 17 17 16 11 6 6 7 8 9 12 17 22 23 23 23 22 20 20 23 27 28 27 25 23 23 26 29 31 34 38 41 44 45 47 48 50 52 54 54 54 52 49 46 43 41 39 38 37 36 34 33 31 30 30 29 29 29 30 30 31 32 33 33 33 32 31
9 10 11 10 10 10 10 11 13 14 16 18 20 21 22 21 19 17 17 18 20 19 17 12 7 5 5 7 8 9 12 16 17 18 21 22 20 19 24 28 30 29 27 23 23 24 25 26 29 34 38 41 43 44 44 46 48 49 50 50 48 46 44 42 40 38 37 36 34 33 32 31 30 29 29 29 29 29 30 32 33 33 33 33 32 31
7 8 8 8 8 7 8 9 11 13 14 16 17 19 20 21 20 19 19 20 20 19 17 15 12 9 8 9 8 8 9 12 14 16 19 20 19 20 26 30 31 31 29 25 22 21 20 21 24 29 33 38 40 41 41 42 43 44 44 44 44 43 42 40 38 37 36 35 34 32 31 30 29 28 28 28 28 29 30 32 33 33 33 33 32 31
6 6 7 6 6 6 7 8 10 11 12 13 15 16 18 19 19 20 21 21 21 19 17 15 14 13 12 10 7 4 5 9 13 16 20 18 16 20 27 30 31 32 30 23 15 11 12 16 21 26 30 34 37 39 39 40 40 39 39 39 39 39 39 38 37 36 35 34 33 32 30 29 28 27 27 27 28 29 31 32 33 33 33 33 32 31
4 5 6 7 7 7 8 9 9 10 11 12 13 15 16 17 17 18 19 21 21 20 18 16 15 16 15 10 5 2 3 9 14 18 21 18 16 20 27 27 28 29 29 22 12 4 5 9 16 23 29 33 35 36 37 38 38 38 38 37 37 36 36 36 36 35 34 33 31 30 28 27 26 25 25 26 27 29 30 32 32 32 32 32 32 31
4 6 7 8 8 9 9 10 10 11 11 12 12 13 14 14 15 16 18 20 21 20 19 18 18 17 17 13 7 4 5 12 16 20 23 19 17 20 25 24 23 22 24 23 18 13 7 6 12 22 29 32 33 35 36 37 37 37 37 36 36 35 35 35 35 34 32 30 28 27 25 24 24 24 24 25 27 28 29 30 31 31 31 31 31 30
6 7 8 9 9 10 11 11 11 12 11 12 12 12 12 12 13 15 17 19 19 20 20 20 19 18 16 13 9 7 9 15 19 22 24 22 19 18 20 21 18 16 16 17 20 20 15 13 17 23 28 31 32 33 34 35 36 36 37 36 35 34 34 34 33 32 30 28 26 25 24 23 23 23 24 24 25 27 27 28 29 29 29 30 30 29
7 8 8 9 10 11 11 11 12 11 11 11 11 11 11 11 13 14 16 17 17 18 19 20 21 19 17 13 10 9 11 17 21 23 26 26 22 19 20 18 16 15 15 15 17 19 19 21 23 24 25 28 30 31 32 33 34 35 36 35 35 34 33 32 31 30 29 28 27 26 25 24 23 23 24 24 24 25 25 26 26 27 27 28 28 28
9 9 8 9 9 10 11 11 11 11 11 11 11 11 11 12 13 14 14 15 15 16 17 19 20 20 20 17 14 13 15 19 22 24 26 28 25 21 20 18 17 17 17 17 18 18 16 20 24 25 23 24 26 28 30 31 33 33 34 33 33 32 31 30 30 29 28 28 27 27 26 26 25 25 24 24 23 23 23 24 24 24 25 25 26 27
10 10 9 8 9 9 11 11 11 10 11 11 11 12 12 13 13 14 13 13 14 14 15 17 18 19 20 20 19 19 22 24 25 25 27 28 27 24 20 17 17 18 18 19 20 20 19 19 21 23 23 20 19 22 27 30 32 32 31 31 30 30 29 29 29 29 28 28 28 27 27 26 26 25 24 23 22 21 21 21 22 22 23 23 24 25
10 10 9 9 9 9 10 11 11 11 11 11 12 12 13 14 14 13 13 13 13 14 14 15 15 16 17 18 19 21 24 26 27 27 27 29 29 27 21 18 18 20 20 21 22 24 23 20 19 19 20 16 15 18 24 29 31 30 30 30 29 29 29 29 29 29 29 28 28 28 27 27 26 25 23 22 20 19 19 19 20 21 21 22 23 23
10 10 10 9 9 9 10 10 11 12 12 12 12 13 14 14 14 13 13 13 13 13 14 14 14 13 13 14 16 19 23 26 28 28 28 29 30 28 24 20 19 20 22 24 25 26 26 22 18 15 15 13 15 21 27 30 30 29 29 29 29 29 29 29 29 29 28 28 28 28 28 27 27 26 24 23 22 21 21 20 20 20 21 21 22 22
9 9 9 10 10 10 10 10 11 12 13 13 13 14 14 14 14 14 14 14 13 14 14 14 13 12 12 12 15 18 23 26 28 28 28 29 30 29 27 23 21 21 23 25 26 27 27 24 21 18 17 15 17 22 27 29 29 28 29 28 28 28 29 29 29 29 28 28 28 28 28 28 27 27 26 25 25 24 24 24 23 22 22 22 22 22
9 9 9 10 10 11 11 11 12 12 13 14 14 14 14 15 15 15 15 15 14 14 14 15 14 14 14 15 17 20 23 26 27 28 28 29 29 29 28 27 26 26 26 27 26 25 24 22 21 22 22 21 20 21 23 25 27 29 29 25 23 24 28 29 29 29 28 28 28 28 27 28 28 27 27 27 27 27 27 27 26 25 25 24 23 22
9 9 9 10 11 11 12 12 12 13 13 14 14 14 14 15 15 16 16 16 16 15 15 15 15 16 17 18 19 21 23 24 26 26 27 28 28 28 28 28 28 29 30 29 28 26 23 21 20 20 21 22 23 24 24 25 27 29 29 24 22 25 28 29 29 29 28 28 27 27 27 27 27 27 27 27 27 28 28 28 28 27 27 26 25 24
10 10 10 11 11 12 12 12 13 13 13 13 14 15 15 15 16 17 17 18 18 17 17 17 18 19 19 20 20 20 21 21 22 24 25 26 27 27 27 28 29 30 31 30 28 26 25 24 23 23 23 24 23 22 22 24 27 28 27 24 24 25 26 27 28 28 28 28 27 26 26 27 27 26 26 26 26 27 27 27 28 28 28 27 27 26
11 11 11 12 12 12 13 13 13 13 13 14 14 15 15 16 16 18 18 19 20 20 20 20 21 21 22 20 19 19 18 18 19 20 21 23 24 25 25 26 27 29 31 30 27 24 23 24 24 25 26 27 27 25 23 23 24 25 25 25 25 23 19 22 26 28 28 27 27 26 26 26 26 26 25 25 25 25 25 26 26 27 28 27 27 27
13 13 12 12 12 13 13 13 14 14 14 14 14 15 15 16 16 18 19 20 20 21 21 22 22 22 22 21 20 19 18 17 17 18 18 19 21 22 23 23 24 26 28 28 26 23 22 21 22 24 26 28 28 26 25 24 24 24 24 25 26 24 22 24 28 29 28 27 27 26 26 25 25 25 24 24 24 24 24 25 25 26 26 27 27 28
14 13 13 13 13 13 13 14 14 14 14 14 14 15 16 16 16 17 19 20 20 21 21 22 21 20 18 19 20 20 20 19 18 18 18 18 19 20 21 22 22 23 24 25 25 25 23 22 21 23 24 25 26 26 25 25 25 25 24 24 25 24 24 27 30 30 28 27 27 26 26 25 24 24 24 24 24 24 25 25 25 26 26 26 27 28
15 14 14 14 14 14 14 14 14 14 14 14 14 15 16 16 16 17 19 20 20 20 20 20 19 17 15 16 18 19 19 19 19 19 19 19 19 20 21 21 21 21 21 21 22 23 24 24 24 24 24 23 22 22 24 25 25 24 23 24 23 22 21 24 27 29 29 28 27 26 25 25 24 23 24 24 24 25 25 25 26 26 26 27 27 28
16 16 16 16 15 15 15 15 14 14 14 14 14 15 15 16 16 17 18 19 19 18 17 18 18 17 16 16 16 17 18 19 20 20 20 20 20 21 21 21 21 21 21 20 20 20 20 22 24 25 24 22 19 18 20 23 24 23 23 23 23 21 20 21 24 27 29 28 27 26 26 25 24 23 23 23 24 24 25 25 26 26 27 27 28 28
17 17 17 17 16 16 15 15 15 14 14 14 14 15 15 16 17 17 17 18 18 17 16 16 16 16 16 15 16 17 18 19 19 20 21 21 21 21 21 21 21 21 21 20 20 20 19 19 20 21 22 22 20 19 19 21 22 23 23 23 23 22 21 22 23 25 27 28 27 27 27 26 24 23 22 22 21 22 24 25 25 25 26 26 27 27
17 18 18 18 17 16 16 15 15 15 15 15 15 15 15 16 16 16 17 17 16 16 16 16 16 16 15 14 15 16 18 18 19 21 22 22 22 22 22 22 22 22 21 21 21 21 20 19 18 17 17 19 20 21 21 21 22 22 22 23 22 22 22 22 22 22 23 25 26 27 27 26 26 25 23 21 19 20 22 23 25 25 25 25 25 26
17 18 18 18 18 17 16 16 16 16 16 16 16 15 15 15 16 16 16 16 15 15 15 16 16 16 15 15 15 16 17 18 18 19 20 21 23 23 23 24 24 23 23 22 21 20 19 18 16 14 13 14 17 20 22 22 22 22 22 22 22 21 21 21 21 21 20 22 24 26 26 26 25 24 23 21 19 19 20 21 23 24 24 24 24 24
18 18 18 18 18 17 17 17 17 17 16 16 16 16 16 16 16 16 15 15 14 14 15 16 16 16 15 15 15 16 17 18 18 18 19 21 23 24 24 24 24 23 21 18 16 15 15 12 10 10 11 11 13 16 20 22 23 22 20 20 20 21 20 20 20 19 19 20 21 23 25 25 24 23 22 21 19 18 18 19 22 24 24 24 24 23
Wind_Direction
199 200 202 202 200 200 204 208 210 212 216 219 219 218 220 219 218 216 214 215 218 221 223 224 223 220 217 216 215 214 214 213 213 213 214 215 216 215 214 213 213 215 217 219 221 223 224 225 226 228 229 230 232 235 237 238 234 227 221 218 216 216 215 211 206 200 195 193 192 191 188 186 185 184 183 182 180 179 179 179 179 180 180 179 179 179
196 198 198 200 199 198 202 207 210 212 215 217 218 218 218 217 215 213 211 212 215 219 221 224 224 222 219 216 214 213 212 212 212 212 213 214 215 216 215 215 214 214 215 218 222 224 226 226 227 229 230 231 232 233 235 236 234 230 227 225 223 219 213 207 201 195 192 191 190 189 187 185 184 184 183 182 181 180 180 180 180 180 180 180 180 182
186 190 194 197 198 198 200 205 208 211 213 217 220 221 220 217 215 213 210 210 212 215 218 220 223 223 222 219 216 214 213 213 212 212 213 214 215 215 216 216 216 216 216 217 221 224 226 226 227 228 231 232 233 234 234 234 232 231 232 234 231 223 212 202 195 191 189 189 189 188 187 185 184 184 183 182 182 181 180 180 181 181 181 181 182 183
181 184 189 193 196 198 201 203 206 209 212 218 223 225 224 221 219 217 215 212 211 212 214 216 219 221 223 222 221 218 216 216 215 214 214 215 215 216 217 217 218 218 217 217 219 220 221 222 224 226 229 233 235 236 236 234 232 233 237 238 231 220 207 198 191 189 188 189 189 189 188 187 186 186 185 184 183 182 181 182 182 182 181 181 182 184
183 184 186 187 191 196 200 203 205 208 212 218 224 228 228 226 224 222 220 217 215 214 214 214 215 217 219 221 222 222 220 219 218 217 217 217 217 217 217 218 219 219 219 218 217 217 217 218 221 224 229 234 237 239 238 237 236 237 239 236 226 212 201 193 189 188 189 189 190 191 191 190 189 188 187 185 184 183 182 182 183 182 181 182 183 184
188 187 186 186 188 193 197 201 203 205 209 215 222 226 227 227 226 226 225 223 220 218 217 216 214 214 215 217 220 221 221 221 220 220 219 219 219 219 219 219 220 221 221 221 220 219 218 219 222 226 231 235 238 239 238 237 237 238 238 231 218 205 196 191 190 190 190 191 193 194 194 192 190 189 187 185 184 183 182 182 183 182 181 181 182 183
190 190 189 188 190 192 195 198 201 202 202 207 213 218 222 224 225 226 226 226 224 223 221 220 218 216 214 215 216 217 217 218 218 219 220 220 221 221 221 221 222 223 224 225 225 225 224 225 227 230 232 234 236 236 236 235 235 235 233 225 213 202 195 192 191 192 193 194 195 196 194 192 190 188 186 185 183 182 181 181 181 181 180 180 181 183
186 189 189 188 189 191 194 198 200 200 199 200 203 207 212 216 219 222 225 226 226 225 224 223 221 220 217 215 214 214 213 213 214 216 218 220 222 223 222 222 223 224 226 227 228 229 229 230 231 232 232 233 232 232 232 231 231 230 227 219 209 201 196 194 194 195 196 197 197 195 193 191 189 187 185 183 181 180 180 179 179 179 179 180 182 183
183 185 188 189 187 187 190 197 200 200 199 199 199 200 202 205 210 215 219 223 225 225 224 223 223 222 221 219 217 216 215 214 214 215 217 220 222 223 223 223 224 225 226 228 229 230 231 231 232 232 232 231 230 230 229 229 228 226 222 215 207 202 198 198 198 198 199 198 196 194 192 190 188 186 184 181 180 179 178 178 178 178 178 180 181 183
185 185 187 190 190 188 188 192 197 199 200 200 201 201 200 199 200 202 207 214 219 222 222 222 221 221 222 221 221 220 220 220 220 220 221 222 223 224 224 224 225 226 227 228 229 229 230 231 231 232 231 231 230 229 228 227 226 223 217 211 206 202 200 200 200 200 199 197 195 193 191 188 186 184 181 179 178 178 177 177 176 177 177 179 182 183
185 185 185 188 192 193 193 193 194 196 196 197 200 201 201 200 197 194 196 203 209 213 215 218 219 219 218 219 220 221 221 222 223 224 225 226 226 227 227 227 227 228 228 229 229 229 230 230 231 231 232 231 231 230 228 227 224 220 215 209 205 203 202 201 200 199 198 196 194 191 189 187 184 181 179 178 177 177 176 176 176 176 177 180 182 184
185 185 186 187 190 192 194 193 192 191 190 192 194 197 200 199 197 195 195 197 200 203 207 211 215 217 216 216 217 218 219 220 221 223 225 227 228 229 229 230 231 231 231 231 230 230 231 231 231 232 232 232 231 230 228 226 222 218 213 208 205 203 201 200 199 197 195 193 192 190 187 185 182 180 177 177 177 177 176 175 175 176 177 180 182 185
189 188 188 188 189 189 189 186 183 184 186 189 191 193 196 196 195 194 196 198 198 200 201 204 208 212 215 215 215 215 216 217 219 221 222 224 226 227 228 230 230 231 231 231 231 231 231 231 231 231 231 231 230 229 227 224 220 216 211 206 203 201 199 197 195 193 191 190 188 186 184 181 179 178 177 177 176 176 175 175 175 176 178 181 184 186
192 189 188 188 189 190 188 183 181 183 189 193 196 197 196 193 191 191 194 198 200 201 200 200 202 206 210 213 214 215 214 215 216 218 220 222 224 225 226 227 228 229 230 230 230 230 230 230 230 229 228 228 227 226 225 222 218 213 208 203 199 196 194 192 190 188 186 185 183 182 180 178 177 176 176 176 176 175 175 175 176 177 180 183 185 187
196 190 189 190 191 192 191 188 188 190 195 198 199 199 195 191 189 189 190 193 196 197 197 198 200 203 206 209 212 213 214 213 213 214 217 220 223 224 224 225 226 228 228 229 229 230 229 228 226 225 224 223 223 222 220 216 211 206 201 197 194 192 189 187 185 183 181 180 179 177 177 176 176 176 176 176 176 175 176 177 179 181 183 186 188 189
209 199 198 197 195 195 195 193 194 196 198 198 198 195 190 187 187 188 190 190 189 187 188 190 195 203 209 210 211 211 211 211 211 213 216 219 222 224 224 224 225 227 228 228 229 229 228 227 224 222 219 219 218 217 213 208 203 198 195 192 190 188 186 184 183 181 179 178 177 176 176 176 176 176 176 176 177 178 179 181 183 185 187 189 191 192
228 214 210 206 203 201 199 197 198 198 198 197 196 194 191 189 188 189 190 190 185 183 186 187 188 196 211 213 212 211 210 209 209 211 214 218 222 225 225 224 224 225 227 228 228 227 227 225 222 219 216 215 213 211 208 203 198 193 191 189 188 186 185 185 184 182 181 179 178 177 177 176 176 176 176 178 180 182 184 185 187 188 190 192 194 196
243 228 221 217 214 209 203 201 200 200 198 196 196 196 195 194 192 191 191 190 187 186 190 192 195 198 198 206 212 212 209 206 205 207 210 214 219 223 225 224 223 224 225 226 226 225 224 222 220 217 214 211 208 206 202 199 195 192 190 189 188 187 186 186 185 184 183 182 180 178 177 176 176 177 179 183 185 186 187 188 189 191 193 195 197 199
254 240 230 227 224 218 211 205 202 200 198 197 196 196 196 196 194 192 193 193 193 193 194 198 203 207 209 208 210 210 208 205 202 202 204 209 215 219 222 221 220 221 222 222 222 222 220 219 217 214 211 208 204 201 198 196 194 192 191 190 189 188 188 187 186 185 184 182 180 178 177 176 178 181 185 188 189 189 189 189 190 193 195 198 200 202
262 250 238 233 230 226 221 214 209 205 202 201 198 196 196 195 194 194 195 197 198 199 200 204 208 213 214 214 213 210 206 202 199 198 201 206 210 213 215 213 212 213 216 217 218 217 215 213 211 209 208 205 202 198 196 194 193 193 193 192 191 190 189 187 186 184 182 180 178 177 177 179 183 187 190 191 190 190 190 191 192 195 198 201 203 205
266 258 250 241 235 230 226 221 216 212 208 205 202 199 198 197 196 197 198 199 200 201 203 207 213 216 216 216 213 209 204 197 193 194 198 201 205 207 207 205 205 207 209 212 212 211 209 207 205 204 203 202 199 196 194 193 193 193 193 192 191 189 188 186 184 182 180 178 177 178 180 184 188 190 191 191 190 190 191 193 195 197 200 203 206 207
270 267 263 255 246 238 234 228 222 217 213 209 205 202 201 199 199 200 201 200 200 201 204 209 215 218 218 216 214 209 203 197 194 192 193 193 198 201 200 197 197 200 203 205 205 204 202 201 201 201 200 199 197 195 194 193 193 192 191 190 189 187 185 183 181 180 178 177 179 181 185 188 189 190 190 189 190 191 192 195 197 199 201 203 204 204
276 274 271 264 256 248 242 236 229 222 216 213 210 207 206 205 205 205 204 204 204 205 206 209 212 213 212 211 209 205 198 196 195 193 188 188 195 197 194 191 191 193 197 198 197 196 196 196 196 197 197 197 196 195 194 193 192 190 189 187 186 184 182 180 179 178 178 179 182 185 187 188 188 188 187 188 189 192 194 197 199 201 201 201 200 198
285 279 274 269 263 256 250 243 235 227 220 215 213 211 211 210 209 208 207 207 205 204 201 200 198 196 195 195 194 192 191 190 189 189 189 190 192 192 188 185 184 186 189 191 191 189 189 190 191 192 192 193 192 192 192 191 190 188 187 185 183 181 179 178 177 178 180 182 184 186 187 187 186 186 186 188 190 193 195 197 198 199 198 196 194 192
293 287 281 275 268 261 255 248 241 232 224 217 213 212 211 209 208 206 203 202 199 194 187 178 167 159 162 168 175 181 186 185 185 185 186 186 184 183 182 181 179 177 178 182 183 184 183 183 184 185 185 186 187 187 188 187 187 186 184 182 180 178 177 177 178 180 182 184 185 185 185 185 184 185 186 188 191 192 194 194 194 192 190 189 188 188
297 292 287 280 273 265 258 252 244 236 228 221 215 211 208 205 203 200 197 194 188 180 167 155 147 147 156 161 168 176 183 183 183 183 184 179 172 171 175 176 174 169 166 169 173 175 176 176 177 178 178 179 180 182 182 182 182 181 180 179 177 177 177 178 180 182 183 184 184 184 183 183 184 185 186 188 189 189 190 190 189 187 186 186 187 189
297 293 287 281 273 266 258 251 243 236 230 223 218 213 207 202 196 188 180 180 178 173 165 162 155 151 158 165 175 182 185 186 185 183 180 172 164 162 168 169 166 160 153 153 159 165 166 167 168 171 172 173 175 176 177 177 177 176 176 176 176 176 178 179 181 181 182 182 182 182 182 182 183 184 185 186 186 186 187 187 187 186 186 187 188 190
298 293 286 279 272 264 256 248 240 234 228 223 219 215 211 203 192 182 178 179 178 174 172 171 165 154 158 170 178 183 187 191 190 184 176 168 161 158 163 162 159 152 143 138 143 151 155 157 161 165 167 169 170 171 172 172 172 173 173 174 175 177 178 179 179 180 180 180 180 181 181 182 183 184 185 185 185 186 186 187 187 188 188 189 190 192
296 291 283 274 265 256 247 239 233 229 224 220 216 213 211 206 199 192 188 185 179 175 175 175 171 165 161 163 166 173 185 192 189 180 171 164 159 157 158 156 153 149 141 132 130 133 137 143 151 158 163 165 166 167 168 169 170 171 172 173 174 176 177 177 178 178 178 179 180 180 181 182 183 184 185 185 186 187 188 188 189 189 190 191 192 193
287 279 270 258 245 233 226 222 220 219 217 215 211 208 207 207 205 201 196 190 183 177 175 170 167 162 157 151 146 156 188 192 184 175 168 160 154 153 154 152 151 148 144 136 125 115 116 127 139 150 158 162 163 164 165 167 168 168 169 171 172 173 175 176 176 176 177 178 179 180 181 182 183 184 185 186 187 188 189 190 190 190 191 192 194 195
261 249 238 226 216 208 203 203 204 205 206 205 203 202 202 204 205 204 200 192 186 180 175 168 164 162 159 155 148 158 195 188 182 176 171 159 151 152 153 152 152 151 149 147 143 123 110 118 133 144 153 158 160 161 163 164 164 165 165 166 167 169 172 174 175 175 176 178 179 180 181 182 183 184 185 187 188 189 190 191 191 191 192 193 195 197
225 217 211 203 196 190 187 187 189 191 193 194 196 198 199 201 202 201 197 191 187 182 176 171 167 165 166 169 170 169 177 178 178 177 174 160 150 151 154 154 155 157 155 155 154 150 139 136 134 139 147 152 155 157 160 161 161 161 161 161 162 165 169 171 172 173 174 176 178 179 180 182 183 185 186 188 189 191 192 193 193 193 194 195 197 200
201 200 196 191 185 180 176 178 180 183 185 187 189 192 194 196 196 194 191 188 187 185 179 173 169 167 167 165 159 152 162 170 174 177 175 163 152 150 154 154 155 157 156 153 150 148 144 144 139 138 141 146 150 153 156 158 159 159 159 158 158 160 164 167 168 169 170 172 174 177 179 182 184 186 188 190 192 194 195 196 197 197 198 199 201 202
189 188 185 180 176 173 172 173 175 177 179 181 183 185 187 187 186 184 184 185 187 188 186 180 174 169 165 158 146 141 153 166 171 175 175 165 156 151 154 152 149 145 140 135 133 133 134 137 138 137 137 139 144 149 152 155 157 159 159 158 157 158 161 164 165 166 168 170 172 174 178 181 184 187 190 192 194 197 199 200 201 202 203 203 203 204
180 179 176 172 168 166 166 168 170 171 172 173 174 177 179 180 179 179 180 183 186 188 189 187 183 179 174 170 162 157 159 167 171 174 176 168 160 154 153 152 149 143 135 130 128 128 129 132 135 137 135 134 137 143 150 154 157 159 161 161 160 160 163 165 166 167 169 171 172 175 178 181 184 188 191 194 196 198 199 201 202 203 204 205 205 204
172 169 168 165 161 159 159 162 164 165 165 165 167 170 173 175 176 177 179 182 183 184 185 186 187 187 188 186 181 173 170 172 173 175 176 171 164 157 153 152 150 146 139 134 133 134 135 134 134 134 134 132 133 140 147 154 158 160 161 162 163 165 167 169 170 170 171 172 174 176 179 182 184 187 191 194 195 196 196 197 198 199 201 203 205 205
165 162 162 162 160 157 156 158 161 162 162 162 163 165 168 170 172 174 177 179 180 180 179 181 183 187 191 194 192 185 179 175 174 174 175 173 168 161 155 153 151 149 144 140 139 139 138 136 133 132 133 132 134 141 146 152 156 159 160 163 166 168 170 173 175 175 174 174 175 178 180 181 183 185 188 189 190 191 192 193 194 195 198 202 205 207
159 155 157 162 163 162 158 155 156 158 161 160 160 161 164 165 167 169 171 173 174 174 174 175 176 179 184 190 191 187 180 173 171 171 173 173 170 164 158 152 150 150 149 146 144 143 142 140 138 139 140 133 135 142 146 150 153 155 159 164 168 170 172 175 177 178 177 177 178 179 181 182 183 184 185 186 186 187 189 191 193 195 199 203 208 211
155 151 152 158 163 165 161 157 155 157 159 160 160 160 160 160 161 162 162 163 165 166 167 166 165 164 167 172 176 175 172 169 168 169 170 171 170 167 161 155 151 150 150 149 147 147 147 146 146 147 146 140 137 141 146 149 151 154 158 162 167 172 175 178 180 181 181 180 180 181 183 184 185 186 186 187 187 187 188 189 191 194 198 203 207 211
154 149 149 156 163 168 168 164 162 161 159 159 159 160 159 157 155 154 155 156 156 158 160 160 157 153 152 155 159 163 166 167 168 169 169 170 169 168 165 160 156 153 152 151 150 150 149 148 147 146 146 146 146 146 147 150 154 157 159 159 163 171 177 181 183 184 185 184 184 184 185 187 189 190 190 190 191 191 191 191 192 194 197 200 202 204
157 152 153 159 166 171 172 171 168 165 161 158 156 155 155 154 150 147 146 147 147 149 152 153 149 146 145 147 152 157 162 165 167 169 169 169 169 169 167 164 161 158 156 155 155 154 153 149 145 144 144 146 149 152 154 157 160 163 163 163 167 172 177 182 185 187 188 189 188 188 188 189 192 193 194 195 196 196 196 195 195 196 198 201 202 202
161 158 159 164 167 170 171 172 169 167 164 161 156 152 152 153 151 147 144 140 138 140 144 144 140 135 133 136 142 150 156 161 165 169 170 171 171 170 168 166 163 161 159 158 158 158 158 156 153 151 151 152 153 155 159 163 166 169 170 169 169 171 175 181 186 189 190 190 191 192 191 192 193 195 197 198 200 202 202 202 201 200 201 203 204 205
168 167 168 169 170 170 171 169 167 165 165 163 159 156 155 155 154 151 146 140 137 137 139 141 139 133 126 123 127 136 144 152 160 166 170 172 173 173 170 166 164 162 160 158 157 157 159 160 159 159 161 161 161 161 162 166 169 172 174 173 170 167 168 177 184 188 190 191 192 193 194 194 195 197 198 200 202 205 206 207 207 206 206 205 206 208
174 174 173 172 172 172 170 167 166 166 167 165 162 160 158 157 156 153 148 143 140 139 139 139 138 132 123 117 117 123 131 141 150 156 163 169 173 175 173 168 164 163 162 158 155 153 154 154 157 161 165 167 166 165 166 168 171 174 176 177 176 174 174 178 182 184 187 189 192 194 195 196 197 198 199 201 203 206 208 209 210 210 210 209 209 210
176 174 172 171 170 169 166 166 168 169 170 169 165 162 159 158 157 155 150 146 143 141 140 140 136 127 118 115 117 119 123 130 137 144 151 158 166 171 171 169 166 164 162 160 159 157 154 150 152 158 164 167 168 168 169 170 172 175 177 180 181 182 183 182 182 182 183 185 188 192 195 196 196 196 197 200 203 205 208 209 210 211 212 212 212 212
174 171 169 169 168 167 166 169 171 171 169 168 165 162 160 159 158 156 153 148 144 141 142 143 138 129 123 122 122 121 121 123 128 134 141 147 155 161 165 165 165 164 162 161 161 161 160 157 157 158 159 160 163 167 171 172 173 174 176 179 181 183 185 185 185 185 185 185 187 189 192 195 195 195 196 199 202 205 208 210 211 212 212 213 213 213
173 170 168 168 167 167 169 171 171 168 165 163 162 162 162 160 158 155 153 150 146 143 142 142 138 133 131 131 130 127 124 122 124 128 134 140 146 152 156 159 161 163 162 161 159 159 160 162 163 162 159 155 155 161 170 173 174 174 175 178 180 182 184 187 190 191 191 190 190 190 192 193 193 194 196 199 201 204 207 210 212 213 213 214 214 214
176 173 170 169 167 167 167 168 168 165 162 161 161 162 161 161 159 155 152 150 148 145 141 137 134 132 132 133 134 133 130 127 126 128 131 135 140 145 148 151 154 156 158 158 157 155 154 157 160 164 165 162 159 159 165 171 175 176 177 179 181 184 187 191 194 196 196 196 196 196 196 194 193 193 195 196 199 202 205 208 210 212 213 214 214 215
179 175 173 171 169 167 167 167 167 165 162 160 159 159 160 161 160 156 153 151 149 146 142 138 135 133 133 134 135 135 133 131 130 131 132 135 138 140 142 144 145 145 144 145 146 147 147 149 152 158 167 171 167 163 164 168 174 178 179 182 183 186 188 192 194 196 197 199 200 201 201 199 199 198 195 193 194 198 202 204 206 208 210 211 212 214
180 177 175 173 171 170 169 169 168 166 163 161 159 157 158 160 159 158 156 153 150 147 145 142 140 137 137 137 138 137 135 134 133 133 135 138 140 141 140 141 140 137 133 132 133 134 134 134 138 146 156 169 172 168 164 165 169 174 177 181 184 186 187 189 191 193 194 196 199 201 201 200 200 200 197 194 193 195 198 201 203 205 206 207 208 210
179 178 177 175 174 173 171 170 169 167 165 163 160 159 158 159 159 158 156 154 150 148 147 146 143 141 140 141 141 141 141 140 138 138 140 143 144 144 143 143 141 137 131 128 127 127 124 119 118 124 137 154 166 171 169 165 165 166 169 176 181 185 186 185 186 188 188 191 195 197 198 197 197 196 196 193 192 192 195 198 201 202 203 203 204 205